Theta_e
355 357 357 356 355 352 351 351 353 354 356 356 355 355 355 356 357 359 358 359 360 360 362 362 362 361 361 363 363 362 363 364 361 361 363 364 361 359 358 358 358 358
355 356 356 356 355 354 352 351 351 352 354 356 355 354 355 355 356 358 359 360 359 358 360 361 361 361 360 362 364 362 363 364 362 361 363 362 360 359 359 357 358 359
357 356 356 355 354 354 352 351 351 352 351 353 354 354 355 355 356 357 358 358 357 357 358 359 359 361 361 361 363 363 362 363 362 360 361 362 360 359 358 357 356 358
358 356 356 354 352 352 352 350 352 352 350 350 351 352 353 353 355 357 357 357 357 356 356 357 357 358 359 359 361 361 360 360 360 359 360 361 361 359 358 358 357 357
360 356 355 354 352 351 351 351 350 351 350 349 349 349 350 351 352 355 357 357 357 356 355 356 356 356 356 358 358 359 358 357 357 358 358 359 359 358 357 357 358 358
362 359 356 355 353 352 351 351 350 350 349 348 348 347 349 351 352 353 355 357 356 354 353 354 355 355 355 356 357 357 356 354 354 356 357 358 358 357 355 355 356 357
363 362 359 356 354 353 352 351 351 351 349 347 347 347 347 349 353 353 353 355 355 353 351 351 352 353 353 354 356 357 357 355 354 355 357 358 358 356 355 354 355 356
361 362 361 358 354 353 352 351 352 352 350 347 346 347 347 348 351 352 351 352 353 353 352 351 351 353 354 354 354 357 358 355 354 355 357 358 358 357 356 355 355 356
360 360 361 359 355 353 352 350 350 352 352 350 347 346 347 348 349 349 350 351 351 352 353 352 352 355 356 354 354 356 358 356 352 352 355 357 357 356 356 355 355 355
360 359 359 358 354 352 350 348 347 349 351 351 348 345 345 347 349 349 349 351 352 352 353 354 355 356 356 354 354 355 358 358 355 352 352 354 354 354 353 353 353 353
360 359 357 357 355 352 351 348 346 345 347 349 349 346 343 345 348 349 349 352 353 353 353 355 355 356 356 355 353 354 356 357 356 354 353 353 353 352 352 351 351 351
359 359 357 357 356 353 351 349 347 345 345 346 348 347 344 343 345 349 349 350 353 354 354 354 355 356 357 356 353 351 353 355 354 354 353 353 353 352 351 350 349 349
359 359 358 357 356 355 352 350 349 347 345 346 347 347 345 343 343 346 349 350 352 354 353 353 354 355 355 356 355 351 350 353 353 351 351 351 351 350 349 348 348 348
358 358 358 357 357 357 355 352 350 349 348 347 346 347 347 345 342 343 347 349 351 353 353 352 353 354 355 356 356 353 350 350 351 351 349 348 348 348 348 347 346 346
357 357 358 359 359 358 357 356 353 351 350 349 348 348 347 347 345 343 344 347 350 352 353 351 349 351 352 354 355 355 351 348 348 350 349 346 346 346 346 346 345 344
356 357 358 359 359 359 359 358 356 354 353 352 351 350 349 349 348 347 345 345 347 350 352 352 349 346 347 350 352 353 352 348 346 346 348 347 346 344 344 344 343 343
356 357 358 358 359 360 360 360 359 357 355 354 354 353 353 353 352 351 349 347 347 348 350 350 348 345 344 346 348 349 350 349 347 346 346 347 347 347 346 345 342 341
356 357 359 358 359 360 361 362 361 359 356 356 356 356 356 356 355 354 354 352 350 348 348 349 349 347 345 344 345 345 345 346 346 345 344 345 346 348 349 348 345 342
354 355 356 357 357 358 360 362 362 361 358 356 357 357 357 358 358 358 357 356 355 352 350 349 349 348 348 346 346 345 343 343 344 343 342 341 343 345 347 348 348 347
352 354 353 353 354 354 356 359 360 361 361 357 356 356 357 358 359 358 358 358 358 356 354 353 351 349 349 348 349 348 347 346 346 346 344 341 341 341 343 345 348 350
349 352 352 353 354 354 355 355 355 356 357 357 357 356 357 359 358 359 359 358 359 358 357 356 354 352 351 350 350 350 350 349 349 349 349 348 346 345 344 344 346 349
343 346 349 352 354 355 355 355 354 354 353 354 356 356 357 358 358 359 359 359 359 359 358 357 356 354 353 352 351 351 351 351 349 350 351 352 351 351 349 349 348 348
341 342 345 349 352 355 356 355 354 354 353 353 353 354 356 357 358 358 359 359 359 358 358 359 358 356 354 353 352 352 352 350 350 350 352 353 353 353 353 352 351 351
342 342 343 345 347 351 355 356 355 354 353 353 352 353 356 358 358 357 357 358 358 358 359 359 358 358 357 356 354 353 352 351 350 351 352 353 354 355 355 354 354 353
342 343 343 343 344 346 350 352 353 352 353 353 352 352 355 358 358 357 357 357 357 357 358 359 358 358 358 357 356 354 354 352 351 353 354 354 355 356 356 357 356 355
340 342 343 343 343 345 347 349 350 352 354 354 353 352 353 357 358 358 358 358 357 357 358 358 357 357 357 358 358 357 356 354 352 353 355 356 356 357 357 358 358 358
Wind_Speed
18 17 16 15 14 13 13 13 12 12 11 11 10 10 10 9 9 9 9 9 9 8 7 6 6 5 5 5 5 5 4 4 4 4 4 4 4 4 3 3 3 4
19 18 16 16 15 14 14 14 13 13 12 11 10 10 10 10 10 10 9 9 9 9 8 7 7 7 7 6 6 6 5 5 5 5 5 5 5 5 4 4 4 4
20 19 18 17 16 16 15 14 14 14 13 12 12 11 10 10 11 11 10 10 10 9 9 9 8 8 8 7 7 7 7 6 6 6 5 5 6 6 5 5 4 4
22 21 20 19 18 17 16 16 15 14 14 14 13 13 11 11 11 11 11 11 10 10 10 10 10 9 9 9 8 8 7 7 7 7 6 6 6 7 6 6 5 4
23 22 21 20 19 18 17 17 16 16 15 15 14 14 13 12 12 12 12 12 12 11 11 11 11 10 10 10 9 9 8 8 8 8 7 7 7 7 7 6 6 6
23 23 22 20 20 19 18 18 18 17 16 16 15 15 14 14 14 13 13 14 13 13 12 11 11 11 11 11 11 10 9 9 8 8 9 9 8 8 7 7 7 7
23 23 22 21 20 20 20 19 18 18 17 17 16 16 15 15 16 15 15 15 14 14 13 13 13 12 12 12 12 11 11 10 9 9 9 9 9 9 8 8 8 8
22 22 22 22 21 21 21 20 19 19 18 18 17 17 17 17 17 17 16 16 15 15 15 14 14 14 13 12 12 12 12 11 10 10 10 10 10 9 9 9 9 9
22 22 21 22 22 21 21 22 21 20 19 19 19 18 18 18 17 17 17 17 16 16 16 15 14 14 14 14 13 13 13 12 11 11 11 11 11 11 11 10 10 10
21 22 21 22 22 21 21 22 21 21 20 20 20 19 19 19 18 18 17 18 18 17 17 16 15 15 15 15 14 14 14 13 12 12 12 12 12 11 11 11 11 11
21 21 22 22 22 21 21 22 21 21 21 21 21 20 20 19 19 19 18 18 18 18 18 18 17 17 16 16 16 15 15 14 14 13 13 13 13 12 12 11 11 12
20 21 21 22 22 22 22 22 21 21 21 21 21 21 20 20 20 20 19 19 19 19 18 19 18 18 18 17 17 16 16 15 15 15 14 14 14 14 13 13 13 13
19 20 20 21 22 22 21 21 21 21 21 21 21 21 21 21 20 20 20 20 20 20 19 19 19 19 19 19 18 18 17 16 16 16 16 16 16 15 15 15 15 15
18 19 20 20 20 21 21 21 21 22 22 21 21 21 21 21 21 20 20 20 20 20 20 20 20 20 20 20 19 19 18 18 18 17 17 17 17 17 17 16 16 16
15 17 18 18 19 20 20 21 22 21 21 21 21 21 20 20 20 20 20 20 20 20 20 20 21 21 21 21 21 20 20 20 19 19 19 19 18 18 18 18 18 18
13 15 16 17 19 21 20 20 21 20 21 21 21 21 20 19 19 20 20 20 21 21 20 20 21 21 22 24 23 22 21 20 20 20 20 20 20 20 20 19 19 19
15 16 16 16 17 19 20 20 19 19 19 19 19 20 20 20 20 20 21 21 21 21 21 21 21 21 23 25 27 26 24 21 20 21 21 21 21 21 21 21 21 22
14 14 16 17 17 16 17 18 17 17 18 18 19 19 19 20 20 21 21 21 22 22 22 22 22 22 23 25 28 30 29 26 22 21 21 22 22 22 22 22 22 22
11 12 11 11 13 14 14 15 16 17 18 18 19 19 19 20 20 21 21 21 21 22 23 23 23 23 24 26 28 29 31 30 27 24 23 23 23 23 23 23 23 23
9 10 12 11 12 13 13 13 14 16 18 18 19 19 20 21 21 21 21 21 20 20 21 23 24 24 25 27 29 30 30 31 30 27 25 25 25 25 24 23 23 23
9 6 11 13 13 14 14 15 16 18 18 17 18 19 20 21 21 21 21 21 21 21 21 22 23 24 25 25 27 29 30 31 31 29 26 25 26 26 27 26 25 24
8 5 9 12 12 14 16 18 19 20 21 20 19 18 18 20 21 21 21 21 22 21 21 22 22 23 26 27 27 27 28 29 32 31 27 25 25 25 26 27 27 26
11 9 11 12 12 13 15 17 20 21 21 20 22 22 19 19 19 20 20 21 21 22 22 22 22 22 25 27 29 29 29 30 31 29 25 24 25 24 25 25 26 27
10 11 13 13 13 14 14 12 15 18 19 19 22 24 22 18 18 19 19 20 21 22 22 22 22 22 24 26 28 29 30 31 31 27 23 24 24 23 24 25 26 28
10 9 12 14 14 15 14 12 12 16 18 19 22 25 23 19 18 18 18 19 21 22 23 23 22 23 24 26 28 29 30 32 31 25 22 23 23 22 23 23 25 27
12 10 10 12 14 15 14 13 13 15 17 19 22 25 24 21 19 19 19 20 20 20 21 23 24 24 25 27 29 29 30 32 31 26 23 23 23 22 21 22 22 24
Wind_Direction
192 194 196 198 200 200 201 202 202 202 203 202 200 201 201 198 194 191 191 191 195 199 201 202 202 206 211 211 216 221 223 223 218 208 210 224 237 249 256 263 274 282
193 194 196 199 200 201 203 203 203 205 206 206 205 202 202 202 199 196 196 194 197 201 203 205 208 212 216 216 215 219 222 226 229 223 218 229 239 246 253 256 254 253
194 194 196 200 202 202 203 204 203 206 207 207 207 206 204 202 200 200 201 200 201 203 203 206 211 213 218 221 218 222 225 225 232 234 228 230 237 246 251 255 258 243
194 196 198 201 203 203 203 204 204 204 206 207 207 209 209 206 202 202 204 204 205 205 204 206 211 213 216 221 223 228 231 231 234 237 239 237 237 246 249 250 259 259
194 197 200 202 203 203 203 205 206 205 206 207 207 208 209 208 207 205 204 206 207 208 208 207 209 212 214 216 222 229 233 235 233 232 238 244 242 243 245 245 249 256
193 196 199 201 202 203 204 206 207 207 207 207 208 208 207 207 210 209 207 208 209 210 212 212 211 212 212 213 219 224 231 235 234 229 232 240 244 245 246 245 244 248
192 194 197 200 201 202 205 207 207 208 210 209 208 208 208 208 208 210 210 210 211 212 213 215 213 213 212 211 215 220 225 232 235 234 234 237 243 247 250 251 247 247
193 194 196 198 201 203 204 207 207 208 209 209 209 208 209 210 208 210 212 212 212 213 215 218 214 213 213 212 213 216 220 227 229 230 234 237 242 246 250 252 250 249
194 196 197 198 201 204 206 207 208 207 207 208 210 209 207 211 211 211 211 211 213 213 214 218 216 212 214 214 214 215 217 223 225 226 229 233 239 243 245 247 248 248
196 197 200 202 204 206 207 209 208 206 206 208 211 211 208 209 212 213 210 208 211 213 213 216 217 215 217 218 217 216 218 221 223 225 228 230 233 237 238 240 242 243
199 200 202 203 206 209 208 209 210 207 206 206 210 214 213 209 207 209 210 208 209 212 212 213 216 216 218 221 221 220 220 222 223 224 227 228 230 233 235 237 240 241
201 203 207 206 208 212 211 210 211 210 208 206 208 213 214 212 208 206 208 209 209 211 212 213 215 216 218 221 224 225 223 224 226 225 226 228 229 231 234 236 239 241
209 206 209 211 210 213 214 213 213 213 212 209 208 210 212 214 212 207 207 209 209 211 212 213 214 216 219 221 224 228 227 227 228 227 228 229 231 233 235 236 238 240
215 212 211 213 213 214 215 216 216 216 216 214 212 211 212 216 217 213 209 210 211 212 213 213 213 215 217 218 221 226 228 229 229 229 231 231 233 235 236 238 240 242
217 216 215 212 213 214 214 216 219 218 217 217 217 217 215 216 220 220 216 212 212 214 214 215 215 215 216 216 217 220 224 228 229 230 233 235 236 238 239 241 243 245
229 225 224 217 213 212 212 213 216 219 220 218 217 220 221 219 221 224 224 219 215 214 216 218 219 220 218 215 216 217 220 225 229 230 232 235 238 240 242 243 245 247
233 231 230 227 220 212 211 212 213 215 219 219 218 219 220 220 221 224 228 228 225 221 220 223 225 226 223 219 219 220 220 222 227 230 232 234 237 239 241 244 246 248
248 241 237 234 230 220 212 213 213 214 215 215 216 216 216 217 219 221 225 229 231 230 228 229 230 231 229 225 223 225 226 225 227 230 233 235 237 239 240 243 246 248
299 279 278 266 256 247 231 219 215 214 215 215 215 215 214 216 218 220 222 225 228 231 232 233 233 232 231 229 227 228 231 231 230 232 236 237 238 239 241 241 243 246
339 285 287 291 287 281 269 254 241 228 221 220 220 218 215 216 219 220 223 225 227 228 229 232 234 233 231 231 229 229 232 233 233 234 237 240 241 241 243 243 242 242
359 276 276 280 274 268 262 260 257 249 243 238 230 223 218 217 219 220 222 223 226 227 227 230 232 232 232 232 231 230 231 233 234 234 236 239 241 241 242 243 243 242
343 284 294 297 282 271 259 245 236 237 244 251 250 240 228 222 220 220 221 222 223 225 228 231 233 232 232 232 233 233 232 232 232 233 235 238 239 239 239 240 240 240
337 309 310 304 291 294 286 258 238 231 235 246 257 254 243 231 227 224 223 223 224 224 226 229 233 234 233 233 234 233 232 232 231 230 231 236 238 238 238 238 238 237
340 327 325 314 297 299 303 282 256 248 243 244 253 257 251 241 236 232 228 226 227 226 226 227 231 233 233 233 234 234 233 232 231 229 230 234 237 238 238 238 238 237
335 323 327 328 316 305 305 301 282 270 260 251 253 258 258 251 246 242 238 234 232 230 228 227 230 234 233 233 233 233 234 233 230 228 230 234 237 238 238 237 239 240
337 326 322 326 323 317 311 301 286 277 268 258 250 249 251 251 247 245 244 242 240 238 234 231 233 234 234 233 233 231 232 232 228 226 230 234 236 238 239 238 238 239